TimeCDT,TemperatureF,Dew PointF,Humidity,Sea Level PressureIn,VisibilityMPH,Wind Direction,Wind SpeedMPH,Gust SpeedMPH,PrecipitationIn,Events,Conditions,WindDirDegrees,DateUTC
12:15 AM,41.0,24.8,53,29.94,10.0,Calm,Calm,-,N/A,,Clear,0,2012-10-18 05:15:00
12:35 AM,42.8,26.6,53,29.93,10.0,Calm,Calm,-,N/A,,Clear,0,2012-10-18 05:35:00
12:55 AM,41.0,26.6,57,29.94,10.0,Calm,Calm,-,N/A,,Clear,0,2012-10-18 05:55:00
1:15 AM,37.4,26.6,65,29.94,10.0,Calm,Calm,-,N/A,,Clear,0,2012-10-18 06:15:00
1:35 AM,37.4,24.8,60,29.95,10.0,NNW,3.5,-,N/A,,Clear,330,2012-10-18 06:35:00
1:55 AM,35.6,24.8,65,29.96,10.0,West,4.6,-,N/A,,Clear,280,2012-10-18 06:55:00
2:15 AM,37.4,24.8,60,29.97,10.0,West,3.5,-,N/A,,Clear,280,2012-10-18 07:15:00
2:35 AM,35.6,24.8,65,29.98,10.0,West,4.6,-,N/A,,Clear,270,2012-10-18 07:35:00
2:55 AM,37.4,24.8,60,29.98,10.0,West,5.8,-,N/A,,Clear,280,2012-10-18 07:55:00
3:15 AM,37.4,26.6,65,29.98,10.0,West,6.9,-,N/A,,Clear,260,2012-10-18 08:15:00
3:35 AM,37.4,26.6,65,29.98,10.0,West,9.2,-,N/A,,Scattered Clouds,270,2012-10-18 08:35:00
3:55 AM,37.4,24.8,60,29.98,10.0,NW,3.5,-,N/A,,Scattered Clouds,310,2012-10-18 08:55:00
4:15 AM,37.4,26.6,65,30.00,10.0,NNE,8.1,-,N/A,,Clear,20,2012-10-18 09:15:00
4:35 AM,35.6,26.6,70,30.00,10.0,NNW,8.1,-,N/A,,Clear,340,2012-10-18 09:35:00
4:55 AM,35.6,26.6,70,30.01,10.0,North,6.9,-,N/A,,Mostly Cloudy,350,2012-10-18 09:55:00
5:15 AM,35.6,26.6,70,30.02,10.0,NW,6.9,-,N/A,,Mostly Cloudy,320,2012-10-18 10:15:00
5:35 AM,35.6,26.6,70,30.03,10.0,NW,5.8,-,N/A,,Mostly Cloudy,320,2012-10-18 10:35:00
5:55 AM,33.8,26.6,75,30.03,10.0,NW,6.9,-,N/A,,Scattered Clouds,320,2012-10-18 10:55:00
6:35 AM,33.8,26.6,75,30.05,10.0,NW,6.9,-,N/A,,Clear,310,2012-10-18 11:35:00
6:55 AM,33.8,26.6,75,30.05,10.0,NW,6.9,-,N/A,,Clear,310,2012-10-18 11:55:00
7:15 AM,33.8,26.6,75,30.06,10.0,NNW,6.9,-,N/A,,Clear,330,2012-10-18 12:15:00
7:35 AM,35.6,26.6,70,30.06,10.0,NW,8.1,-,N/A,,Clear,320,2012-10-18 12:35:00
7:55 AM,33.8,26.6,75,30.08,10.0,NW,8.1,-,N/A,,Clear,320,2012-10-18 12:55:00
8:15 AM,32.0,26.6,80,30.08,10.0,NW,6.9,-,N/A,,Clear,320,2012-10-18 13:15:00
8:35 AM,35.6,28.4,75,30.09,10.0,NW,4.6,-,N/A,,Clear,310,2012-10-18 13:35:00
8:55 AM,41.0,28.4,61,30.09,10.0,NNW,5.8,-,N/A,,Clear,330,2012-10-18 13:55:00
9:15 AM,44.6,26.6,49,30.10,10.0,NNW,8.1,-,N/A,,Clear,330,2012-10-18 14:15:00
9:35 AM,48.2,23.0,37,30.10,10.0,NNW,13.8,-,N/A,,Clear,340,2012-10-18 14:35:00
9:55 AM,50.0,23.0,35,30.10,10.0,NNW,15.0,20.7,N/A,,Clear,330,2012-10-18 14:55:00
10:15 AM,51.8,23.0,33,30.10,10.0,NNW,18.4,-,N/A,,Clear,340,2012-10-18 15:15:00
10:35 AM,51.8,21.2,30,30.10,10.0,NNW,20.7,26.5,N/A,,Clear,340,2012-10-18 15:35:00
10:55 AM,53.6,21.2,28,30.10,10.0,North,20.7,-,N/A,,Clear,350,2012-10-18 15:55:00
11:15 AM,55.4,21.2,26,30.10,10.0,NNW,19.6,24.2,N/A,,Clear,340,2012-10-18 16:15:00
11:35 AM,55.4,21.2,26,30.10,10.0,NNW,18.4,25.3,N/A,,Clear,330,2012-10-18 16:35:00
11:55 AM,57.2,21.2,25,30.10,10.0,NNW,18.4,28.8,N/A,,Clear,340,2012-10-18 16:55:00
12:15 PM,59.0,21.2,23,30.10,10.0,NNW,16.1,25.3,N/A,,Clear,340,2012-10-18 17:15:00
12:35 PM,60.8,19.4,20,30.09,10.0,NNW,19.6,25.3,N/A,,Clear,340,2012-10-18 17:35:00
1:15 PM,60.8,19.4,20,30.08,10.0,NNW,18.4,25.3,N/A,,Clear,340,2012-10-18 18:15:00
1:35 PM,62.6,19.4,19,30.08,10.0,NW,15.0,25.3,N/A,,Clear,320,2012-10-18 18:35:00
1:55 PM,62.6,19.4,19,30.06,10.0,NW,19.6,25.3,N/A,,Clear,320,2012-10-18 18:55:00
2:15 PM,62.6,19.4,19,30.06,10.0,NW,12.7,26.5,N/A,,Clear,320,2012-10-18 19:15:00
2:35 PM,62.6,19.4,19,30.06,10.0,WNW,18.4,25.3,N/A,,Clear,300,2012-10-18 19:35:00
2:55 PM,62.6,21.2,20,30.05,10.0,NW,19.6,28.8,N/A,,Clear,310,2012-10-18 19:55:00
3:15 PM,64.4,21.2,19,30.03,10.0,NW,15.0,25.3,N/A,,Clear,310,2012-10-18 20:15:00
3:35 PM,64.4,21.2,19,30.03,10.0,NW,19.6,25.3,N/A,,Clear,310,2012-10-18 20:35:00
3:55 PM,64.4,21.2,19,30.03,10.0,WNW,16.1,23.0,N/A,,Clear,300,2012-10-18 20:55:00
4:15 PM,64.4,21.2,19,30.03,10.0,WNW,12.7,20.7,N/A,,Clear,300,2012-10-18 21:15:00
4:35 PM,64.4,21.2,19,30.02,10.0,WNW,19.6,24.2,N/A,,Clear,290,2012-10-18 21:35:00
5:15 PM,64.4,21.2,19,30.01,10.0,WNW,16.1,24.2,N/A,,Clear,290,2012-10-18 22:15:00
5:35 PM,64.4,21.2,19,30.01,10.0,WNW,15.0,-,N/A,,Clear,300,2012-10-18 22:35:00
5:55 PM,64.4,23.0,21,30.01,10.0,WNW,11.5,15.0,N/A,,Clear,300,2012-10-18 22:55:00
6:15 PM,62.6,23.0,22,30.01,10.0,NW,12.7,-,N/A,,Clear,310,2012-10-18 23:15:00
6:55 PM,59.0,23.0,25,30.01,10.0,WNW,8.1,-,N/A,,Clear,300,2012-10-18 23:55:00
7:15 PM,53.6,23.0,30,30.01,10.0,West,5.8,-,N/A,,Clear,280,2012-10-19 00:15:00
7:35 PM,51.8,23.0,33,30.02,10.0,West,6.9,-,N/A,,Clear,270,2012-10-19 00:35:00
7:55 PM,51.8,23.0,33,30.02,10.0,West,9.2,-,N/A,,Clear,270,2012-10-19 00:55:00
8:15 PM,48.2,23.0,37,30.03,10.0,West,9.2,-,N/A,,Clear,270,2012-10-19 01:15:00
8:35 PM,48.2,23.0,37,30.03,10.0,West,9.2,-,N/A,,Clear,260,2012-10-19 01:35:00
8:55 PM,48.2,24.8,40,30.04,10.0,West,9.2,-,N/A,,Clear,270,2012-10-19 01:55:00
9:15 PM,46.4,24.8,43,30.04,10.0,West,10.4,-,N/A,,Clear,270,2012-10-19 02:15:00
9:35 PM,46.4,26.6,46,30.05,10.0,West,11.5,-,N/A,,Clear,280,2012-10-19 02:35:00
9:55 PM,46.4,26.6,46,30.05,10.0,WNW,11.5,-,N/A,,Clear,290,2012-10-19 02:55:00
10:15 PM,44.6,24.8,46,30.06,10.0,WNW,10.4,-,N/A,,Clear,290,2012-10-19 03:15:00
10:35 PM,50.0,23.0,35,30.06,10.0,NW,10.4,-,N/A,,Clear,310,2012-10-19 03:35:00
10:55 PM,48.2,24.8,40,30.07,10.0,NNW,10.4,-,N/A,,Clear,340,2012-10-19 03:55:00